EDT,Max TemperatureF,Mean TemperatureF,Min TemperatureF,Max Dew PointF,MeanDew PointF,Min DewpointF,Max Humidity, Mean Humidity, Min Humidity, Max Sea Level PressureIn, Mean Sea Level PressureIn, Min Sea Level PressureIn, Max VisibilityMiles, Mean VisibilityMiles, Min VisibilityMiles, Max Wind SpeedMPH, Mean Wind SpeedMPH, Max Gust SpeedMPH,PrecipitationIn, CloudCover, Events, WindDirDegrees
2012-10-1,64,54,45,51,46,42,90,76,53,29.94,29.90,29.87,,,,8,4,,0.00,,,227
2012-10-2,64,58,51,56,52,46,90,80,65,29.94,29.90,29.85,,,,10,3,,0.00,,,58
2012-10-3,64,62,60,60,57,54,90,86,80,30.03,29.97,29.92,,,,10,5,,0.00,,,92
2012-10-4,73,65,57,57,54,50,90,73,49,30.02,29.97,29.91,,,,14,5,25,0.15,,,241
2012-10-5,62,55,48,57,41,34,87,62,44,30.00,29.93,29.87,,,,12,7,24,0.01,,,247
2012-10-6,52,48,45,38,32,26,76,56,47,30.07,29.94,29.85,,,,15,8,28,0.01,,,278
2012-10-7,52,43,35,34,30,24,79,60,35,30.10,30.08,30.07,,,,7,5,,0.00,,,270
2012-10-8,55,44,34,35,29,25,82,60,33,30.17,30.12,30.08,,,,8,5,,0.00,,,219
2012-10-9,62,52,42,37,32,28,62,47,35,30.07,29.93,29.75,,,,12,6,26,0.00,,,186
2012-10-10,55,48,41,41,35,28,89,67,47,30.08,29.86,29.71,,,,15,9,29,0.13,,,273
2012-10-11,57,44,34,43,31,25,83,62,39,30.12,30.05,29.90,,,,16,8,34,0.04,,,252
2012-10-12,48,41,36,36,29,23,76,60,40,30.45,30.35,30.14,,,,15,8,33,0.03,,,355
2012-10-13,55,44,34,53,37,25,93,76,60,30.40,30.13,29.80,,,,10,4,18,0.28,,,171
2012-10-14,68,62,55,62,58,53,96,85,70,29.79,29.59,29.32,,,,10,6,24,0.61,,,191
2012-10-15,54,51,45,55,40,35,90,77,66,29.89,29.65,29.32,,,,17,12,31,0.28,,,289
2012-10-16,54,44,35,40,36,32,89,67,53,29.96,29.87,29.75,,,,9,6,17,0.00,,,225
2012-10-17,72,60,48,52,47,41,83,64,40,29.75,29.62,29.55,,,,12,8,22,0.08,,,162
2012-10-18,63,56,50,54,47,37,87,73,55,29.66,29.52,29.39,,,,16,9,32,0.21,,,149
2012-10-19,55,50,46,48,45,39,90,79,64,29.65,29.61,29.55,,,,20,9,28,0.09,,,142
2012-10-20,53,48,45,46,44,42,93,87,77,29.83,29.66,29.57,,,,7,2,,0.12,,,266
2012-10-21,59,52,44,46,42,40,93,78,51,30.06,30.00,29.85,,,,13,7,20,0.00,,,243
2012-10-22,64,52,44,54,47,39,89,79,70,30.07,30.03,29.98,,,,15,6,,0.11,,,152
2012-10-23,57,55,53,55,53,52,97,95,93,30.03,29.97,29.92,,,,15,7,,0.54,,,107
2012-10-24,66,58,53,60,55,51,96,91,83,30.02,29.99,29.94,,,,16,9,,0.22,,,139
2012-10-25,77,67,57,58,54,51,87,66,45,29.94,29.85,29.74,,,,13,7,23,0.00,,,173
2012-10-26,69,57,45,54,40,31,89,66,50,30.25,30.09,29.73,,,,15,8,24,0.06,,,314
2012-10-27,48,46,45,39,35,32,74,64,58,30.24,30.22,30.20,,,,22,11,25,0.00,,,8
2012-10-28,46,46,45,37,33,31,74,60,54,30.25,30.20,30.14,,,,28,17,38,0.01,,,15
2012-10-29,45,44,42,38,35,33,82,72,63,30.13,30.01,29.75,,,,33,23,52,0.02,,,3
2012-10-30,42,42,41,37,36,36,86,81,76,29.73,29.64,29.57,,,,24,21,54,0.09,,,357
2012-10-31,42,41,41,37,37,36,86,85,82,29.57,29.57,29.57,,,,15,12,25,0.00,,,310